Terminal Aerodrome Forecast
Issued by NWS

Home | Current Version | Previous Version | Text Only | Print | Product List | Glossary On
Versions: 1 2 3 4 5 6 7 8 9 10 11 12 13 14 15
000
FTUS43 KJKL 151600 AAF
TAFSME
TAF AMD
KSME 151621Z 1516/1612 02006KT P6SM SCT016 OVC023
     FM151700 30010G24KT P6SM SCT010 OVC016
     FM152000 30010G18KT P6SM SCT018 OVC035
     FM152300 VRB04KT P6SM BKN040
     FM160300 VRB03KT P6SM SKC=

USA.gov is the U.S. government's official web portal to all federal, state and local government web resources and services.